Location: Newark
(51.0500°N, 12.4500°E)
Time: 04:42:57
(UTC+00:00)

Tiros 1 - Pass Details

Date: 22 February 2020
Orbit: 630 x 664 km, 48.4° (Epoch: 04 April)

Event Time Altitude Azimuth Distance (km) Brightness Sun altitude
Rises 00:59:58 0° 207° (SSW) 2,922 - -44.9°
Reaches altitude 10° 01:02:48 10° 190° (S) 2,012 - -44.6°
Maximum altitude 01:06:07 20° 144° (SE) 1,473 - -44.3°
Drops below altitude 10° 01:09:26 10° 98° (E) 2,010 - -44.0°
Exits shadow 01:12:13 - 82° (E) 2,906 11.0 -43.7°
Sets 01:12:16 0° 81° (E) 2,919 11.0 -43.7°
